Location: Bergstadtl-Ratibo?itz
(49.4651°N, 14.7717°E)
Time: 03:21:00
(UTC+00:00)

Daily predictions for brighter satellites

Satellite Brightness Start Highest point End
(mag) Time Altitude Azimuth Time Altitude Azimuth Time Altitude Azimuth
MINOTAUR IV R/B 4.5 00:03:42 10° NNW 00:08:16 79° WSW 00:09:46 42° SSE
Nadezhda 1 Rocket 4.4 00:02:34 10° NNW 00:08:47 53° W 00:11:32 32° SSW
Meteor 1-11 Rocket 4.0 00:06:39 31° SSE 00:09:10 59° E 00:14:36 10° NNE
Helios 1B rocket 4.3 00:08:32 10° NE 00:11:44 21° E 00:13:32 16° SE
Cosmos 1980 3.7 00:07:05 10° NNW 00:12:44 68° WSW 00:15:18 33° S
Cosmos 1666 3.1 00:12:13 44° WSW 00:12:54 50° WNW 00:16:41 10° N
Cosmos 1378 3.0 00:10:26 10° NNW 00:14:08 78° W 00:14:41 62° SSW
MOZ.5/SAFIR/RUBIN 5/SL-8 3.7 00:12:39 37° SSE 00:14:33 87° WSW 00:19:19 10° NNW
Resurs 1-4 Rocket 2.8 00:11:25 10° NNE 00:16:32 45° E 00:19:08 26° SSE
USA 229 DEB 4.3 00:10:49 10° NW 00:17:43 44° WSW 00:21:08 29° S
USA 229 4.3 00:10:55 10° NW 00:17:49 45° WSW 00:21:16 29° S
Intercosmos 25 Rocket 3.2 00:18:31 55° S 00:19:16 87° E 00:23:50 10° N
Lacrosse 5 2.8 00:21:12 29° SSE 00:22:22 32° SE 00:26:52 10° ENE
Cosmos 2084 Rocket 3.3 00:20:13 10° NW 00:24:25 83° SW 00:27:01 24° SE
Cosmos 1703 Rocket 3.7 00:21:23 10° NNW 00:25:40 58° W 00:26:49 42° SSW
ADEOS Rocket 3.4 00:21:23 13° SE 00:26:16 55° ENE 00:31:37 10° N
USA 267 4.3 00:20:18 10° ENE 00:26:29 46° N 00:32:39 10° WNW
Cosmos 2297 Rocket 2.2 00:31:41 33° SSW 00:34:22 84° ESE 00:40:05 10° NNE
NPP 4.2 00:29:49 10° NNE 00:35:05 51° E 00:38:09 24° SSE
Cosmos 1536 2.7 00:35:32 44° SSW 00:36:44 85° WNW 00:40:46 10° N
Cosmos 2237 Rocket 2.5 00:31:30 10° NW 00:36:56 48° WSW 00:39:18 31° SSW
CZ-4 R/B 4.0 00:32:25 10° N 00:37:21 68° WNW 00:39:36 33° SW
Meteor 1-13 Rocket 4.4 00:31:55 10° NNW 00:37:40 61° W 00:40:26 30° SSW
ARGOS Delta rocket 4.0 00:33:25 10° N 00:38:10 58° WNW 00:40:01 33° SW
Cosmos 2181 Rocket 4.0 00:33:52 10° NNW 00:40:16 78° W 00:44:07 25° S
BREEZE-M DEB (TANK) 3.0 00:36:11 10° WSW 00:41:44 53° S 00:44:38 10° E
AQUA 4.5 00:38:57 10° NNE 00:43:35 48° E 00:46:15 23° SSE
Cosmos 2227 Rocket 2.2 00:42:16 30° SSW 00:45:08 78° ESE 00:50:49 10° NNE
Cosmos 909 Rocket 4.4 00:41:37 28° SSW 00:45:20 70° ESE 00:53:02 10° NE
Cosmos 1733 Rocket 4.1 00:44:58 19° SSE 00:47:39 40° E 00:51:49 10° NNE
Cosmos 2242 Rocket 4.4 00:45:01 10° NNW 00:49:02 35° W 00:50:12 29° WSW
TSX-5 4.4 00:50:00 30° WSW 00:51:34 50° NW 00:56:04 10° NNE
Cosmos 1544 3.3 00:52:00 40° SW 00:52:58 54° WNW 00:56:33 10° N
ASTEX 1 3.7 00:51:41 31° SSW 00:53:41 48° W 00:58:27 10° NNW
NOSS 2-2 (D) 4.4 00:48:35 10° NW 00:53:50 61° SW 01:01:09 10° SSE
CZ-2D R/B 2.1 00:48:35 10° NNE 00:53:59 86° ESE 00:57:06 27° SSW
ADEOS II 2.8 00:52:14 10° NNE 00:57:21 48° E 01:01:02 18° SSE
CZ-4C R/B 3.4 00:50:58 10° NW 00:57:51 63° NE 01:06:00 10° ESE
SL-16 R/B 2.1 00:55:04 10° NNW 01:00:45 82° WSW 01:06:26 10° SSE
Meteor 1-23 Rocket 4.3 00:55:39 10° NNW 01:01:17 68° W 01:04:59 22° S
IRS-1D 4.5 00:58:18 10° NNE 01:02:57 39° E 01:06:49 14° SSE
Cosmos 192 4.3 00:58:29 10° NNW 01:03:26 88° ENE 01:08:08 11° SSE
Timation 1 Rocket 4.3 01:06:26 25° SSW 01:10:07 89° ESE 01:16:10 10° NNE
Iridium 4 Rocket 4.1 01:05:43 10° N 01:11:07 63° E 01:16:47 10° SSE
Cosmos 2263 Rocket 3.8 01:07:41 10° SSE 01:12:21 27° ESE 01:17:04 10° NE
Cosmos 1869 Rocket 4.2 01:11:10 26° SW 01:13:14 43° WNW 01:17:32 10° N
Cosmos 614 Rocket 4.2 01:10:41 22° S 01:14:00 63° ESE 01:19:10 10° NNE
Nadezhda 3 Rocket 4.1 01:14:43 10° N 01:21:09 85° E 01:27:30 10° S
Cosmos 1743 3.2 01:19:32 27° SW 01:21:10 45° WNW 01:24:52 10° N
Meteor 1-28 Rocket 3.2 01:21:44 15° SSE 01:24:47 82° ENE 01:28:32 10° NNW
Meteor 2-12 Rocket 4.4 01:20:37 20° SSW 01:25:01 79° W 01:31:12 10° N
Cosmos 2221 Rocket 3.8 01:24:12 10° NNW 01:28:40 56° W 01:31:41 20° SSW
GEOS 3 Rocket 4.2 01:24:59 10° ESE 01:30:15 62° NE 01:35:29 10° NW
Cosmos 2219 3.8 01:28:53 18° WSW 01:32:59 48° NW 01:38:35 10° NNE
Timation 2 Rocket 4.1 01:31:17 19° SW 01:35:38 66° NW 01:41:45 10° NNE
ATLAS CENTAUR R/B 3.6 01:34:10 10° SE 01:36:10 14° ESE 01:38:15 10° E
Cosmos 1975 2.9 01:34:17 18° S 01:37:13 84° E 01:41:20 10° N
Landsat 4 3.8 01:36:03 10° NNE 01:39:45 72° ESE 01:42:29 17° S
Cosmos 1943 3.9 01:34:52 10° NNW 01:40:32 59° ENE 01:46:10 10° SE
MINOTAUR 4 R/B 4.2 01:38:26 19° S 01:40:44 53° WSW 01:44:16 10° NNW
Cosmos 2344 4.1 01:34:47 13° S 01:41:07 48° ESE 01:48:29 10° NE
Cosmos 1461 3.9 01:39:45 16° S 01:43:06 42° ESE 01:47:18 10° NE
Cosmos 1707 2.8 01:41:26 10° N 01:45:18 79° ENE 01:49:08 10° SSE
Cosmos 1238 Rocket 2.3 01:43:34 19° S 01:45:40 82° E 01:49:08 10° N
Cosmos 1674 Rocket 3.6 01:42:02 10° NNW 01:46:24 63° W 01:50:26 12° S
Helios 1B rocket 3.1 01:43:15 10° N 01:47:08 42° WNW 01:49:49 18° SW
IDEFIX/ARIANE 42P 2.7 01:43:04 10° NNE 01:48:17 74° ESE 01:53:13 11° S
SL-16 R/B 3.4 01:44:52 17° SW 01:48:42 31° W 01:54:07 10° NNW
ATLAS 5 CENTAUR R/B 4.0 01:46:03 10° W 01:49:07 14° WSW 01:50:05 14° WSW
Cosmos 2184 Rocket 4.4 01:45:03 17° SW 01:49:47 52° WNW 01:55:56 10° N
CBERS-1 4.1 01:44:58 10° NNE 01:50:08 79° ESE 01:54:57 12° S
Cosmos 2082 3.9 01:48:53 17° SW 01:53:22 66° WNW 01:59:07 10° NNE
Meteor 1-29 3.1 01:51:02 10° N 01:54:19 56° WNW 01:56:32 18° SSW
Resurs 1-4 Rocket 3.2 01:51:32 10° N 01:56:11 32° WNW 02:00:13 13° WSW
Cosmos 1295 Rocket 4.5 01:50:57 13° SSW 01:56:28 73° W 02:02:36 10° N
Cosmos 2154 Rocket 4.1 01:51:28 14° SSW 01:56:46 64° WNW 02:02:58 10° N
CZ-2C R/B 4.3 01:54:49 10° NE 01:58:30 23° E 02:02:11 10° SSE
Cosmos 2251 Rocket 3.9 01:54:37 16° SW 01:58:45 54° WNW 02:03:59 10° NNE
Cosmos 1842 4.1 01:55:30 10° NNW 01:58:57 32° W 02:01:26 16° SSW
Cosmos 1975 Rocket 3.9 02:00:07 10° N 02:04:28 53° ENE 02:08:45 10° SSE
Lacrosse 5 2.1 02:00:23 12° WSW 02:05:05 70° NNW 02:10:10 10° NE
Cosmos 1378 Rocket 4.0 02:03:32 10° NNW 02:07:42 44° W 02:11:49 10° SSW
USA 267 4.0 02:02:33 10° E 02:08:56 58° NNE 02:15:20 10° WNW
MSX 3.9 02:05:42 10° NNE 02:11:30 84° ESE 02:17:14 10° SSW
ADEOS Rocket 3.9 02:08:20 13° SW 02:12:12 25° W 02:16:41 10° NW
Cosmos 1190 Rocket 4.2 02:10:34 10° SSW 02:15:50 77° ESE 02:21:10 10° NNE
Cosmos 1908 Rocket 3.6 02:13:41 10° SSW 02:18:00 68° WNW 02:22:20 10° N
Cosmos 2297 Rocket 3.9 02:14:38 10° W 02:19:08 24° NW 02:23:40 10° NNE
Cosmos 1340 2.7 02:15:27 10° N 02:19:13 82° ENE 02:22:58 10° SSE
Cosmos 1140 Rocket 3.5 02:14:51 10° SSW 02:20:02 82° WNW 02:25:19 10° NNE
USA 290 4.0 02:19:32 10° N 02:22:34 36° ENE 02:25:36 10° SE
Cosmos 1356 Rocket 3.7 02:20:09 11° SSW 02:23:57 50° WNW 02:27:53 10° N
Cosmos 1400 Rocket 4.0 02:20:25 10° SSE 02:24:02 40° E 02:27:44 10° NNE
CZ-4B R/B 3.8 02:19:27 10° NNE 02:24:20 62° ESE 02:29:04 10° S
Cosmos 1626 2.9 02:20:41 10° N 02:24:21 55° ENE 02:27:57 10° SSE
Cosmos 1733 Rocket 4.5 02:22:03 11° WSW 02:25:35 25° WNW 02:29:17 10° NNW
SL-8 R/B 4.3 02:21:22 11° SW 02:25:40 43° SSE 02:30:14 10° E
ATLAS 2AS CENTAUR R/B 4.2 02:20:07 10° NW 02:27:16 45° NNE 02:33:54 10° ESE
ARIANE 5 R/B 2.7 02:22:13 10° NNE 02:27:24 78° ESE 02:32:37 10° S
Cosmos 1603 3.7 02:22:13 10° NNW 02:27:47 67° WSW 02:33:22 10° SSE
NOSS 3-3 (A) 4.1 02:22:22 10° SSW 02:28:08 73° SE 02:34:46 10° NE
NOSS 3-3 (C) 4.1 02:22:30 10° SSW 02:28:15 73° SE 02:34:51 10° NE
Cosmos 1674 2.6 02:25:30 10° NNW 02:29:20 75° W 02:33:09 10° S
Cosmos 2227 Rocket 3.8 02:25:15 10° W 02:29:50 25° NW 02:34:28 10° NNE
Cosmos 1954 Rocket 4.4 02:24:53 10° S 02:30:08 66° ESE 02:35:26 10° NNE
Cosmos 44 3.6 02:28:08 10° NW 02:33:15 51° WSW 02:38:03 10° SSE
CZ-2D R/B 3.9 02:29:47 10° NNW 02:33:23 19° NW 02:37:00 10° W
SL-8 Rocket 4.0 02:28:03 10° SSW 02:34:13 79° W 02:40:25 10° N
ADEOS II 3.2 02:32:19 10° N 02:36:49 29° WNW 02:41:18 10° WSW
Cosmos 2366 rocket 4.1 02:30:27 10° S 02:36:50 90° N 02:43:14 10° N
EP 1 4.5 02:35:41 10° SW 02:38:45 71° NW 02:41:23 10° NE
Cosmos 1025 Rocket 3.4 02:35:15 10° N 02:39:34 70° E 02:43:52 10° SSE
Orbus 7S? 4.5 02:34:37 10° SW 02:42:07 51° SE 02:45:34 10° ENE
IRS-1D 4.5 02:37:45 10° N 02:42:07 32° WNW 02:46:31 10° SW
SL-16 R/B 3.8 02:41:02 10° WNW 02:43:58 14° W 02:46:54 10° SW
IRS-1C 4.3 02:39:13 10° N 02:44:31 66° WNW 02:49:47 10° SSW
Cosmos 2227 4.3 02:40:45 10° SSW 02:46:23 77° WNW 02:52:02 10° NNE
CZ-4C R/B 3.3 02:39:36 10° NW 02:46:29 45° WSW 02:54:20 10° S
